Location: Unspecified
(32.4532°N, 0.0000°E)
Time: 03:07:23
(UTC+00:00)

In-Cosmos 22 - Visible Passes

Search period start: 04 April 2026 00:00
Search period end: 14 April 2026 00:00
Orbit: 783 x 875 km, 81.2° (Epoch: 29 March)

Date Brightness Start Highest point End Pass type
(mag) Time Alt. Az. Time Alt. Az. Time Alt. Az.
4 Apr 7.4 04:50:47 10° ESE 04:53:03 13° E 04:55:19 10° ENE visible
9 Apr 5.5 04:57:21 10° SSE 05:02:17 41° E 05:07:12 10° NNE visible
10 Apr 6.0 04:39:10 10° SSE 04:43:48 32° E 04:48:26 10° NNE visible
11 Apr 6.4 04:21:07 10° SE 04:25:20 25° E 04:29:34 10° NE visible
12 Apr 6.7 04:03:13 10° SE 04:06:54 19° E 04:10:34 10° NE visible
13 Apr 6.9 03:45:36 10° ESE 03:48:28 15° E 03:51:20 10° NE visible
